DECAYED

OBJECT DM, 63002 (Decayed)

Orbit data source: Space-Track

You're viewing an Uncataloged Satellite

Recently launched and/or uncataloged satellites may have evolving metadata. Metadata may include but not limited to: Owner, Maufacturer, Bus, Motor, and Mission.

OBJECT DM, 63002 was a satellite in LEO that was launched on Tue, 14 Jan 2025 UTC via an FALCON 9 launch vehicle from the Air Force Western Test Range (AFWTR). Unknown objects in Earth's orbit typically refer to objects detected orbiting the Earth but have not yet been identified or cataloged. These objects could be anything from previously untracked satellites, spent rocket stages, debris from satellite collisions, or even natural meteoroids temporarily captured by Earth's gravity. This object's orbit decayed before it could be identified.

Not visible in the next 10 days
Identifier
63002, 2025-009DM
Orbit
Decayed
Country
Flag of TBDTBD
Related business
None
Manufacturer
Unknown
Mission
Decayed Amateur Technology
Bus & Motor
Unknown
Mass
Unknown
Launch date (UTC)
2025-01-14 (1 year ago)
Launch vehicle
FALCON 9
Launch site
Air Force Western Test Range (AFWTR)
Object type
Unknown
Shape & HBR
Box, 0.1 m
Radar Cross Section
0.004 m², Small (<0.1 m²)

Expand to show TLE details & history
Last TLE update: 2 weeks ago

TLE from 2 weeks ago
0 OBJECT DM
1 63002U 25009DM  26120.63486468  .15714382  25502-5  56124-3 0  9994
2 63002  97.3806 214.5358 0013850 275.5212  84.4509 16.42995914130021
Epoch: 2026-04-30T15:14Z
TLE epoch observation values (Epoch: 2026-04-30T15:14:12.308Z)
Latitude
-0.00004°
Longitude
127.40587°
Altitude
160.238 km
Speed
7.81 km/s
True Right ascension
14h 18m 08s
True Declination
0° 00' 00"
Sunlit
Object was in full shadow at epoch
Visualization orbit readout
Latitude
Unknown
Longitude
Unknown
Altitude
Unknown
Speed
Unknown
Apparent Right ascension
Unknown
Apparent Declination
Unknown
Sunlit
N/A
Visualization observer readout
Local Sidereal Time
17:28:09
Azimuth
Unknown
Elevation
Unknown
Doppler factor
Unknown
Orbital elements
Apogee altitude
163.696 km
Perigee altitude
145.6 km
Semi-major axis
6,532.785 km
Eccentricity
0.00139
Inclination
97.3806°
RAAN
214.5358°
Arg. of periapsis
275.5212°
True anomaly
84.60889°
Mean anomaly
84.4509°
Eccentric anomaly
84.52989°
Mean motion
4.11051 °/min
Orbital period
87.58 mins
BSTAR
0.00056124
Loading maneuver chart data...
Computing Atmospheric mass density...
Loading historical data...
Loading historical data...
Loading historical data...
Loading historical data...
Loading historical data...
Loading historical data...
Loading historical data...

Documentation

Showing up to 5 results
|